Regional Weather Roundup
Issued by NWS Newport/Morehead, NC

Current Version | Previous Version | Graphics & Text | Print | Product List | Glossary On
Versions: 1 2 3 4 5 6 7 8 9 10 11 12 13 14 15 16 17 18 19 20 21 22 23 24 25 26 27 28 29 30 31 32 33 34 35 36 37 38 39 40 41 42 43 44 45 46 47 48 49 50
000 ASUS42 KMHX 041113 RWRMHX WEATHER ROUNDUP FOR EASTERN NORTH CAROLINA NATIONAL WEATHER SERVICE NEWPORT/MOREHEAD CITY NC 700 AM EDT TUE AUG 04 2015 NOTE: "FAIR" INDICATES FEW OR NO CLOUDS BELOW 12,000 FEET WITH NO SIGNIFICANT WEATHER AND/OR OBSTRUCTIONS TO VISIBILITY NCZ015>017-031-032-045>047-102-103-041200- NORTH COAST CITY SKY/WX TMP DP RH WIND PRES REMARKS EDENTON N/A 78 76 92 SW3 30.00R ELIZABETH CITY MOCLDY 79 76 90 SW9 30.00R KITTY HAWK SUNNY 79 76 91 SW5 30.00R MANTEO PTCLDY 79 77 93 SW13 30.01R $$ NCZ045>047-081-094-103-104-041200- CENTRAL COAST CITY SKY/WX TMP DP RH WIND PRES REMARKS FRISCO PTCLDY 79 75 87 SW9 30.02R SWANQUARTER N/A 81 N/A N/A S7 29.97S $$ NCZ095-097-098-100-101-041200- SOUTHERN COAST CITY SKY/WX TMP DP RH WIND PRES REMARKS BEAUFORT PTCLDY 80 77 90 S10 30.01R CEDAR ISLAND N/A 79 N/A N/A S2 30.03S JACKSONVILLE MOCLDY 79 73 82 S5 29.98S PINEY ISLAND MOSUNNY N/A N/A N/A S3 30.00R WILMINGTON CLOUDY 79 75 87 SE9 29.99R $$ NCZ011>013-027>030-043-044-078>080-089-090>093-098-041200- COASTAL PLAIN CITY SKY/WX TMP DP RH WIND PRES REMARKS AHOSKIE MOCLDY 73 71 96 CALM 30.00R CLINTON PTCLDY 76 75 99 CALM 30.00R ELIZABETHTOWN MOCLDY 76 76 100 CALM 29.97S GOLDSBORO CLEAR 76 76 100 E2 29.97S GREENVILLE CLOUDY 79 77 94 CALM 30.01S FOG HAVELOCK CLEAR 78 75 90 S3 30.01R KENANSVILLE CLOUDY N/A N/A N/A CALM 30.00R FOG KINSTON CLEAR 77 75 94 S3 30.00S FOG NEW BERN CLEAR 77 74 90 CALM 30.01R RICHLANDS MOCLDY 77 72 83 CALM 29.99R ROCKY MOUNT CLEAR 72 71 97 CALM 30.00R FOG WASHINGTON CLEAR 76 75 96 CALM 30.00S WHITEVILLE CLOUDY 75 73 95 CALM 29.96S FOG $$ AMZ130-135-150-152-154-156-158-170-250-252-270-ANZ085-086-088-633-658-670-041200- MARINE OBSERVATIONS STATION/POSITION TIME TEMP WIND PRES WAVE SWELL AIR SEA DIR/SP/G HT/PER HT/PER (UTC) (F) (DEG/KT/KT) (MB) (FT/S) (FT/S) CHESAPEAKE LIGHT 1100 77 240/ 13/ 14 1016.1 64 E VA BEACH 1050 81 81 220/ 16/ 17 1015.5 5/ 7 3/ 7 DUCK 1000 80 63 210/ 11/ 14 1014.6 2 E DUCK 1011 69 N/A 2/ 6 OREGON INLET 1000 81 80 200/ 16/ 18 1015.6 13E OREGON INLT 1100 80 N/A 4/ 5 HATTERAS CG 1000 79 78 200/ 5/ 8 1015.6 DIAMOND BUOY 1050 83 84 210/ 16/ 17 1016.4 4/ 6 2/ 7 CAPE LOOKOUT 1100 81 210/ 11/ 14 1015.9 BEAUFORT LAB 1000 81 79 210/ 12/ 16 1015.1 30 SE NEW RVR IN NOT AVBL 27 SE WRIGHTSVLE 1000 78 81 180/ 17/ 21 N/A 5 SE WRIGHTSVLE 1008 82 82 180/ 17/ 21 1014.8 225 S CAPE HAT 1050 81 81 190/ 12/ 14 1018.5 5/ 7 3/ 7 41 SE CHARLESTON 1050 82 83 200/ 21/ 25 1011.5 8/ 7 $$

USA.gov is the U.S. government's official web portal to all federal, state and local government web resources and services.